FW3611 Weather Reports


Display with metric or nautical units.
time (UTC)temp
F
wind
direction
speed
MPH
gust
MPH
rain 1hr
in
rain 24hr
in
rain mn
in
humidity
%
barometer
mb
20210124182748 65 114 4.0 10.0 0.00 0.00 0.00 53 1020.7
20210124182251 65 159 3.0 9.0 0.00 0.00 0.00 54 1020.7
20210124181744 65 113 3.0 9.0 0.00 0.00 0.00 53 1020.8
20210124181243 64 75 3.0 9.0 0.00 0.00 0.00 53 1021.0
20210124180754 65 104 3.0 8.0 0.00 0.00 0.00 53 1021.1
20210124180311 64 133 4.0 9.0 0.00 0.00 0.00 53 1021.0
20210124175750 64 69 4.0 9.0 0.00 0.00 0.00 54 1021.1
20210124175245 64 62 4.0 9.0 0.00 0.00 0.00 53 1021.2
20210124174756 64 98 5.0 10.0 0.00 0.00 0.00 53 1021.2
20210124174253 64 120 5.0 10.0 0.00 0.00 0.00 53 1021.2
20210124173754 64 64 5.0 10.0 0.00 0.00 0.00 53 1021.4
20210124173258 64 70 4.0 10.0 0.00 0.00 0.00 53 1021.5
20210124172755 64 103 3.0 7.0 0.00 0.00 0.00 52 1021.6
20210124172257 63 142 3.0 8.0 0.00 0.00 0.00 52 1021.8
20210124171801 64 114 4.0 10.0 0.00 0.00 0.00 52 1021.9
20210124171252 64 90 4.0 10.0 0.00 0.00 0.00 51 1022.0
20210124170800 62 176 4.0 10.0 0.00 0.00 0.00 53 1022.2
20210124170243 62 142 3.0 10.0 0.00 0.00 0.00 53 1022.3
20210124165807 62 100 3.0 9.0 0.00 0.00 0.00 51 1022.5
20210124165238 62 107 5.0 9.0 0.00 0.00 0.00 53 1022.7
20210124164755 62 78 4.0 10.0 0.00 0.00 0.00 52 1022.8
20210124164256 62 82 4.0 10.0 0.00 0.00 0.00 52 1022.8
20210124163739 61 76 4.0 10.0 0.00 0.00 0.00 51 1022.9
20210124163243 62 87 3.0 7.0 0.00 0.00 0.00 51 1023.0
20210124162745 61 90 4.0 9.0 0.00 0.00 0.00 51 1023.2
20210124162255 60 129 4.0 9.0 0.00 0.00 0.00 51 1023.1
20210124161748 61 102 4.0 8.0 0.00 0.00 0.00 51 1023.1
20210124161242 60 91 4.0 9.0 0.00 0.00 0.00 53 1023.1
20210124160738 60 83 4.0 10.0 0.00 0.00 0.00 52 1023.2
20210124160244 60 106 4.0 10.0 0.00 0.00 0.00 51 1023.4
20210124155738 60 83 4.0 8.0 0.00 0.00 0.00 51 1023.4
20210124155240 60 96 4.0 8.0 0.00 0.00 0.00 52 1023.5
20210124154742 59 88 5.0 10.0 0.00 0.00 0.00 52 1023.4
20210124154241 59 124 5.0 10.0 0.00 0.00 0.00 53 1023.5
20210124153753 58 93 5.0 10.0 0.00 0.00 0.00 53 1023.4
20210124153238 58 101 5.0 10.0 0.00 0.00 0.00 53 1023.5
20210124152733 58 62 5.0 11.0 0.00 0.00 0.00 52 1023.4
20210124152235 57 121 6.0 11.0 0.00 0.00 0.00 54 1023.4
20210124151747 57 119 5.0 11.0 0.00 0.00 0.00 52 1023.2
20210124151231 57 139 5.0 11.0 0.00 0.00 0.00 53 1023.1
20210124150741 56 124 5.0 13.0 0.00 0.00 0.00 54 1023.0
20210124150232 56 94 5.0 13.0 0.00 0.00 0.00 54 1022.9
20210124145732 56 84 4.0 9.0 0.00 0.00 0.00 54 1022.7
20210124145231 55 109 4.0 11.0 0.00 0.00 0.00 54 1022.7
20210124144731 54 97 5.0 12.0 0.00 0.00 0.00 55 1022.7
20210124144222 54 119 5.0 12.0 0.00 0.00 0.00 55 1022.9
20210124143718 53 58 5.0 11.0 0.00 0.00 0.00 55 1023.0
20210124143218 53 43 6.0 12.0 0.00 0.00 0.00 56 1023.1
20210124142708 52 96 6.0 12.0 0.00 0.00 0.00 56 1023.0
20210124142211 52 63 5.0 10.0 0.00 0.00 0.00 57 1023.2
20210124141707 51 110 4.0 11.0 0.00 0.00 0.00 57 1023.2
20210124141207 51 85 4.0 11.0 0.00 0.00 0.00 58 1023.6
20210124140711 51 74 3.0 8.0 0.00 0.00 0.00 58 1023.9
20210124140207 50 52 3.0 8.0 0.00 0.00 0.00 59 1023.8
20210124135716 50 42 4.0 10.0 0.00 0.00 0.00 59 1023.7
20210124135214 50 75 4.0 10.0 0.00 0.00 0.00 59 1023.8
20210124134708 50 75 4.0 8.0 0.00 0.00 0.00 59 1023.7
20210124134209 50 54 4.0 8.0 0.00 0.00 0.00 59 1023.7
20210124133716 49 50 5.0 10.0 0.00 0.00 0.00 59 1023.7
20210124133219 49 70 4.0 10.0 0.00 0.00 0.00 59 1023.7
20210124132707 49 70 2.0 7.0 0.00 0.00 0.00 61 1023.5
20210124132208 49 40 2.0 5.0 0.00 0.00 0.00 61 1023.4
20210124131715 48 58 3.0 5.0 0.00 0.00 0.00 61 1023.2
20210124131151 48 105 3.0 5.0 0.00 0.00 0.00 61 1023.4
20210124130653 48 68 3.0 5.0 0.00 0.00 0.00 61 1023.4
20210124130154 48 42 2.0 6.0 0.00 0.00 0.00 61 1023.4
20210124125651 48 105 2.0 6.0 0.00 0.00 0.00 62 1023.4
20210124125155 48 96 2.0 6.0 0.00 0.00 0.00 62 1023.4
20210124124650 48 91 2.0 4.0 0.00 0.00 0.00 62 1023.4
20210124124148 48 77 2.0 4.0 0.00 0.00 0.00 62 1023.6
20210124123644 48 67 2.0 4.0 0.00 0.00 0.00 62 1023.6
20210124123145 48 72 2.0 4.0 0.00 0.00 0.00 62 1023.6
20210124122643 48 69 2.0 4.0 0.00 0.00 0.00 62 1023.6
20210124122157 48 54 2.0 5.0 0.00 0.00 0.00 62 1023.7
20210124121645 48 41 2.0 5.0 0.00 0.00 0.00 62 1023.6
20210124121150 48 46 2.0 4.0 0.00 0.00 0.00 62 1023.6
20210124120650 48 30 2.0 6.0 0.00 0.00 0.00 62 1023.7
20210124120156 49 58 2.0 6.0 0.00 0.00 0.00 62 1023.7
20210124115649 49 37 2.0 5.0 0.00 0.00 0.00 62 1023.7
20210124115141 49 17 2.0 5.0 0.00 0.00 0.00 61 1023.6
20210124114654 49 27 3.0 8.0 0.00 0.00 0.00 61 1023.4
20210124114138 49 29 2.0 8.0 0.00 0.00 0.00 61 1023.2
20210124113644 49 42 3.0 7.0 0.00 0.00 0.00 61 1023.0
20210124113242 49 67 3.0 7.0 0.00 0.00 0.00 61 1022.9
20210124112635 49 54 3.0 8.0 0.00 0.00 0.00 60 1022.9
20210124112148 49 64 2.0 8.0 0.00 0.00 0.00 61 1022.8
20210124111703 49 54 2.0 8.0 0.00 0.00 0.00 61 1022.7
20210124111134 49 49 3.0 8.0 0.00 0.00 0.00 60 1022.7
20210124110643 49 43 3.0 8.0 0.00 0.00 0.00 60 1022.6
20210124110132 49 43 3.0 8.0 0.00 0.00 0.00 60 1022.7
20210124105634 49 58 2.0 6.0 0.00 0.00 0.00 60 1022.6
20210124105139 50 75 2.0 6.0 0.00 0.00 0.00 60 1022.6
20210124104633 50 57 3.0 6.0 0.00 0.00 0.00 60 1022.5
20210124104134 50 73 3.0 7.0 0.00 0.00 0.00 60 1022.4
20210124103632 50 82 3.0 9.0 0.00 0.00 0.00 59 1022.4
20210124103138 50 58 3.0 9.0 0.00 0.00 0.00 60 1022.4
20210124102647 50 68 2.0 6.0 0.00 0.00 0.00 60 1022.4
20210124102134 50 83 3.0 7.0 0.00 0.00 0.00 59 1022.5
20210124101632 50 60 3.0 7.0 0.00 0.00 0.00 60 1022.4
20210124101133 50 47 3.0 10.0 0.00 0.00 0.00 60 1022.4
20210124100642 50 55 3.0 10.0 0.00 0.00 0.00 60 1022.3
20210124100138 50 50 3.0 6.0 0.00 0.00 0.00 61 1022.2
20210124095635 50 54 4.0 10.0 0.00 0.00 0.00 61 1022.2
20210124095145 50 31 3.0 10.0 0.00 0.00 0.00 61 1022.2
20210124094649 50 64 3.0 8.0 0.00 0.00 0.00 62 1022.0
20210124094125 50 65 3.0 8.0 0.00 0.00 0.00 62 1022.1
20210124093627 50 62 3.0 8.0 0.00 0.00 0.00 62 1022.1
20210124093130 50 82 3.0 8.0 0.00 0.00 0.00 63 1022.2
20210124092631 50 70 3.0 7.0 0.00 0.00 0.00 63 1022.2
20210124092142 50 59 3.0 8.0 0.00 0.00 0.00 63 1022.2
20210124091621 50 75 4.0 9.0 0.00 0.00 0.00 63 1022.3
20210124091117 50 66 3.0 9.0 0.00 0.00 0.00 63 1022.4
20210124090619 50 56 3.0 7.0 0.00 0.00 0.00 64 1022.5
20210124090132 50 50 3.0 6.0 0.00 0.00 0.00 63 1022.4
20210124085626 50 45 3.0 6.0 0.00 0.00 0.00 63 1022.4
20210124085124 50 25 3.0 6.0 0.00 0.00 0.00 64 1022.3
20210124084616 50 56 3.0 8.0 0.00 0.00 0.00 64 1022.2
20210124084126 50 37 3.0 8.0 0.00 0.00 0.00 64 1022.2
20210124083628 50 60 3.0 9.0 0.00 0.00 0.00 64 1022.2
20210124083123 50 74 4.0 9.0 0.00 0.00 0.00 65 1022.2
20210124082620 50 46 4.0 9.0 0.00 0.00 0.00 65 1022.1
20210124082119 50 58 3.0 7.0 0.00 0.00 0.00 65 1022.2
20210124081633 50 67 2.0 5.0 0.00 0.00 0.00 65 1022.2
20210124081129 50 35 3.0 6.0 0.00 0.00 0.00 64 1022.3
20210124080623 50 54 2.0 6.0 0.00 0.00 0.00 64 1022.2
20210124080119 50 23 2.0 7.0 0.00 0.00 0.00 64 1022.2
20210124075623 50 63 2.0 7.0 0.00 0.00 0.00 64 1022.1
20210124075119 50 38 2.0 4.0 0.00 0.00 0.00 64 1022.2
20210124074620 50 29 3.0 6.0 0.00 0.00 0.00 64 1022.2
20210124074111 50 23 2.0 6.0 0.00 0.00 0.00 65 1022.0
20210124073626 49 35 1.0 4.0 0.00 0.00 0.00 65 1022.0
20210124073125 49 48 1.0 3.0 0.00 0.00 0.00 65 1021.9
20210124072626 49 51 2.0 4.0 0.00 0.01 0.00 65 1021.8
20210124072125 49 57 1.0 5.0 0.00 0.01 0.00 65 1021.7
20210124071611 49 56 2.0 5.0 0.00 0.01 0.00 65 1021.7
20210124071123 49 64 2.0 4.0 0.00 0.01 0.00 65 1021.7
20210124070622 49 55 2.0 4.0 0.00 0.01 0.00 65 1021.7
20210124070117 49 55 2.0 5.0 0.00 0.01 0.00 65 1021.6
20210124065622 49 37 2.0 5.0 0.00 0.01 0.00 65 1021.6
20210124065113 49 85 2.0 4.0 0.00 0.01 0.00 65 1021.7
20210124064613 49 70 3.0 6.0 0.00 0.01 0.00 65 1021.7
20210124064123 49 54 2.0 6.0 0.00 0.01 0.00 65 1021.6
20210124063622 49 57 2.0 7.0 0.00 0.01 0.00 65 1021.6
20210124063114 49 64 2.0 7.0 0.00 0.01 0.00 65 1021.6
20210124062621 49 46 3.0 7.0 0.00 0.01 0.00 66 1021.5
20210124062124 49 68 4.0 9.0 0.00 0.01 0.00 66 1021.4
20210124061610 49 62 4.0 9.0 0.00 0.01 0.00 67 1021.2
20210124061113 48 76 2.0 7.0 0.00 0.01 0.00 67 1021.3
20210124060612 48 112 2.0 6.0 0.00 0.01 0.00 67 1021.5
20210124060131 48 87 2.0 6.0 0.00 0.01 0.00 68 1021.5
20210124055616 48 87 2.0 5.0 0.00 0.01 0.00 68 1021.6
20210124055110 48 76 2.0 4.0 0.00 0.01 0.00 68 1021.6
20210124054608 48 72 1.0 4.0 0.00 0.01 0.00 68 1021.7
20210124054113 47 58 1.0 4.0 0.00 0.01 0.00 69 1021.8
20210124053618 47 45 1.0 3.0 0.00 0.01 0.00 69 1021.8
20210124053108 47 33 0.0 3.0 0.00 0.01 0.00 69 1022.0
20210124052625 47 39 0.0 0.0 0.00 0.01 0.00 69 1022.1
20210124052116 47 38 0.0 0.0 0.00 0.01 0.00 70 1022.2
20210124051609 47 39 0.0 0.0 0.00 0.01 0.00 70 1022.3
20210124051112 47 39 0.0 1.0 0.00 0.01 0.00 70 1022.3
20210124050604 46 37 0.0 1.0 0.00 0.01 0.00 71 1022.4
20210124050106 46 58 0.0 0.0 0.00 0.01 0.00 71 1022.4
20210124045606 46 134 0.0 0.0 0.00 0.01 0.01 71 1022.4
20210124045102 46 134 0.0 0.0 0.00 0.01 0.01 71 1022.5
20210124044604 46 134 0.0 0.0 0.00 0.01 0.01 71 1022.6
20210124044113 46 134 0.0 0.0 0.00 0.01 0.01 71 1022.7
20210124043622 46 134 0.0 0.0 0.00 0.01 0.01 71 1022.8
20210124043112 45 134 0.0 0.0 0.00 0.01 0.01 71 1022.8
20210124042615 46 134 0.0 0.0 0.00 0.01 0.01 71 1022.7
20210124042122 46 134 0.0 0.0 0.00 0.01 0.01 71 1022.8
20210124041609 46 134 0.0 0.0 0.00 0.01 0.01 71 1022.7
20210124041103 45 134 0.0 0.0 0.00 0.01 0.01 71 1022.7
20210124040556 46 134 0.0 0.0 0.00 0.01 0.01 71 1022.7
20210124040059 46 134 0.0 0.0 0.00 0.01 0.01 71 1022.6
20210124035553 46 134 0.0 0.0 0.00 0.01 0.01 71 1022.6
20210124035048 45 134 0.0 0.0 0.00 0.01 0.01 71 1022.6
20210124034546 45 134 0.0 0.0 0.00 0.01 0.01 71 1022.5
20210124034051 45 134 0.0 0.0 0.00 0.01 0.01 71 1022.4
20210124033548 45 134 0.0 0.0 0.00 0.01 0.01 71 1022.3
20210124033051 45 134 0.0 0.0 0.00 0.01 0.01 70 1022.3
20210124032551 45 134 0.0 0.0 0.00 0.01 0.01 70 1022.2
20210124032048 46 134 0.0 0.0 0.00 0.01 0.01 70 1022.3
20210124031557 46 134 0.0 0.0 0.00 0.01 0.01 70 1022.3
20210124031048 46 134 0.0 0.0 0.00 0.01 0.01 70 1022.3
20210124030553 46 134 0.0 0.0 0.00 0.01 0.01 69 1022.3
20210124030054 46 134 0.0 0.0 0.00 0.01 0.01 69 1022.2
20210124025558 47 134 0.0 0.0 0.00 0.01 0.01 69 1022.3
20210124025043 47 134 0.0 0.0 0.00 0.01 0.01 69 1022.3
20210124024542 47 134 0.0 0.0 0.00 0.01 0.01 69 1022.3
20210124024046 47 134 0.0 0.0 0.00 0.01 0.01 69 1022.3
20210124023540 47 134 0.0 0.0 0.00 0.01 0.01 68 1022.2
20210124023039 48 134 0.0 0.0 0.00 0.01 0.01 68 1022.1
20210124022540 48 134 0.0 0.0 0.00 0.01 0.01 68 1022.2
20210124022040 48 134 0.0 0.0 0.00 0.01 0.01 68 1022.1
20210124021539 48 134 0.0 0.0 0.00 0.01 0.01 67 1022.1
20210124021049 48 134 0.0 0.0 0.00 0.01 0.01 67 1022.0
20210124020547 49 134 0.0 0.0 0.00 0.01 0.01 66 1021.9
20210124020043 49 134 0.0 0.0 0.00 0.01 0.01 66 1021.9
20210124015538 49 134 0.0 0.0 0.00 0.01 0.01 65 1021.7
20210124015038 50 134 0.0 0.0 0.00 0.01 0.01 65 1021.7
20210124014550 50 134 0.0 0.0 0.00 0.01 0.01 63 1021.6
20210124014037 50 134 0.0 0.0 0.00 0.01 0.01 63 1021.6
20210124013548 51 134 0.0 0.0 0.00 0.01 0.01 62 1021.5
20210124013037 51 134 0.0 0.0 0.00 0.01 0.01 61 1021.5
20210124012538 52 134 0.0 0.0 0.00 0.01 0.01 59 1021.5
20210124012048 52 119 1.0 3.0 0.00 0.01 0.01 59 1021.5
20210124011545 52 119 1.0 3.0 0.00 0.01 0.01 58 1021.6
20210124011043 53 119 0.0 3.0 0.00 0.01 0.01 57 1021.5
20210124010536 53 106 0.0 1.0 0.00 0.01 0.01 57 1021.5
20210124010043 54 106 1.0 4.0 0.00 0.01 0.01 56 1021.4
20210124005536 54 106 2.0 6.0 0.00 0.01 0.01 55 1021.3
20210124005049 54 105 2.0 6.0 0.00 0.01 0.01 55 1021.2
20210124004537 54 120 2.0 6.0 0.00 0.01 0.01 55 1021.1
20210124004036 55 108 2.0 6.0 0.00 0.01 0.01 55 1021.0
20210124003538 55 145 2.0 8.0 0.00 0.01 0.01 54 1020.9
20210124003036 55 141 2.0 9.0 0.00 0.01 0.01 54 1020.9
20210124002545 55 116 3.0 9.0 0.00 0.01 0.01 54 1020.8
20210124002039 56 110 3.0 9.0 0.00 0.01 0.01 54 1020.8
20210124001541 56 159 2.0 9.0 0.00 0.01 0.01 55 1020.7
20210124001034 56 137 2.0 6.0 0.00 0.01 0.01 54 1020.8
20210124000553 56 135 3.0 7.0 0.00 0.01 0.01 55 1020.8
20210124000044 56 104 3.0 7.0 0.00 0.01 0.01 56 1020.7
20210123235531 56 113 2.0 4.0 0.00 0.01 0.01 57 1020.7
20210123235031 56 122 1.0 4.0 0.00 0.01 0.01 58 1020.6
20210123234538 56 96 1.0 4.0 0.00 0.01 0.01 59 1020.5
20210123234025 55 81 1.0 4.0 0.00 0.01 0.01 60 1020.4
20210123233525 56 87 0.0 3.0 0.00 0.01 0.01 60 1020.4
20210123233024 56 70 0.0 0.0 0.00 0.01 0.01 59 1020.3
20210123232518 57 70 0.0 0.0 0.00 0.01 0.01 58 1020.1
20210123232030 57 70 0.0 0.0 0.00 0.01 0.01 57 1020.0
20210123231524 58 70 0.0 0.0 0.00 0.01 0.01 55 1020.1
20210123231016 58 70 0.0 0.0 0.00 0.01 0.01 56 1020.1
20210123230512 59 70 0.0 0.0 0.00 0.01 0.01 54 1020.1
20210123230027 60 70 0.0 1.0 0.00 0.01 0.01 53 1020.1
20210123225523 60 70 0.0 2.0 0.00 0.01 0.01 52 1020.1
20210123225020 61 70 1.0 2.0 0.00 0.01 0.01 50 1020.0
20210123224518 62 70 1.0 4.0 0.00 0.01 0.01 48 1020.1
20210123224020 62 70 1.0 4.0 0.00 0.01 0.01 46 1020.1
20210123223513 62 97 2.0 4.0 0.00 0.01 0.01 45 1020.0
20210123222955 63 76 2.0 5.0 0.00 0.01 0.01 44 1020.0
20210123222442 63 74 2.0 5.0 0.00 0.01 0.01 44 1019.9
20210123221948 63 83 2.0 7.0 0.00 0.01 0.01 43 1020.0
20210123221435 64 71 3.0 7.0 0.00 0.01 0.01 43 1019.9
20210123220938 64 66 3.0 8.0 0.00 0.01 0.01 42 1019.9
20210123220437 64 84 3.0 8.0 0.00 0.01 0.01 41 1019.8
20210123215944 64 76 3.0 8.0 0.00 0.01 0.01 41 1019.7
20210123215437 64 39 3.0 7.0 0.00 0.01 0.01 40 1019.8
20210123214946 65 72 2.0 6.0 0.00 0.01 0.01 41 1019.8
20210123214450 65 91 3.0 7.0 0.00 0.01 0.01 40 1019.8
20210123213945 64 36 3.0 8.0 0.00 0.01 0.01 41 1019.8
20210123213431 65 34 3.0 8.0 0.00 0.02 0.01 39 1019.6
20210123212932 65 72 4.0 8.0 0.00 0.02 0.01 39 1019.6
20210123212449 65 72 4.0 9.0 0.00 0.02 0.01 39 1019.6
20210123211932 65 32 3.0 9.0 0.00 0.02 0.01 38 1019.6
20210123211439 65 70 3.0 7.0 0.00 0.02 0.01 37 1019.6
20210123210929 65 80 3.0 9.0 0.00 0.02 0.01 38 1019.6
20210123210427 66 1 4.0 9.0 0.00 0.02 0.01 38 1019.7
20210123205917 65 39 4.0 9.0 0.00 0.02 0.01 38 1019.7
20210123205411 66 31 3.0 9.0 0.00 0.02 0.01 35 1019.6
20210123204926 65 104 3.0 9.0 0.00 0.02 0.01 38 1019.6
20210123204416 65 74 4.0 10.0 0.00 0.02 0.01 37 1019.5
20210123203914 65 27 5.0 10.0 0.00 0.02 0.01 37 1019.4
20210123203408 65 64 5.0 9.0 0.00 0.02 0.01 36 1019.4
20210123202912 65 85 5.0 9.0 0.00 0.02 0.01 37 1019.3
20210123202408 65 54 4.0 9.0 0.00 0.02 0.01 37 1019.3
20210123201907 66 89 3.0 8.0 0.00 0.02 0.01 38 1019.2
20210123201420 65 33 5.0 11.0 0.00 0.02 0.01 41 1019.2
20210123200923 65 23 4.0 11.0 0.00 0.02 0.01 42 1019.2
20210123200420 65 31 4.0 8.0 0.00 0.02 0.01 41 1019.2
20210123195921 64 22 4.0 8.0 0.00 0.02 0.01 41 1019.2
20210123195416 66 356 3.0 8.0 0.00 0.02 0.01 41 1019.2
20210123194927 65 108 3.0 8.0 0.00 0.02 0.01 43 1019.2
20210123194415 66 39 3.0 7.0 0.00 0.02 0.01 40 1019.1
20210123193900 65 112 4.0 9.0 0.00 0.02 0.01 41 1019.1
20210123193403 65 54 4.0 10.0 0.00 0.02 0.01 40 1019.2
20210123192911 65 69 4.0 10.0 0.00 0.02 0.01 42 1019.2
20210123192400 65 352 4.0 10.0 0.00 0.02 0.01 42 1019.3
20210123191858 64 21 4.0 11.0 0.00 0.02 0.01 42 1019.2
20210123191412 65 58 4.0 11.0 0.00 0.02 0.01 41 1019.2
20210123190911 64 23 4.0 9.0 0.00 0.02 0.01 41 1019.2
20210123190403 65 59 4.0 9.0 0.00 0.02 0.01 42 1019.2
20210123185947 65 345 4.0 11.0 0.00 0.02 0.01 43 1019.3
20210123185355 64 33 4.0 11.0 0.00 0.02 0.01 43 1019.3
20210123184857 64 29 4.0 10.0 0.00 0.02 0.01 45 1019.3
20210123184351 63 92 4.0 10.0 0.00 0.02 0.01 43 1019.3
20210123183854 63 54 4.0 9.0 0.00 0.02 0.01 43 1019.4
20210123183355 64 66 4.0 12.0 0.00 0.02 0.01 41 1019.5